TimeEDT,TemperatureF,Dew PointF,Humidity,Sea Level PressureIn,VisibilityMPH,Wind Direction,Wind SpeedMPH,Gust SpeedMPH,PrecipitationIn,Events,Conditions,WindDirDegrees,DateUTC
12:53 AM,75.0,64.0,69,29.99,10.0,Calm,Calm,-,N/A,,Clear,0,2013-10-12 04:53:00
1:53 AM,72.0,64.0,76,29.99,10.0,Calm,Calm,-,N/A,,Clear,0,2013-10-12 05:53:00
2:53 AM,71.1,64.0,78,29.97,10.0,Calm,Calm,-,N/A,,Clear,0,2013-10-12 06:53:00
3:53 AM,71.1,64.9,81,29.97,10.0,Calm,Calm,-,N/A,,Clear,0,2013-10-12 07:53:00
4:53 AM,69.1,64.9,87,29.97,10.0,Calm,Calm,-,N/A,,Clear,0,2013-10-12 08:53:00
5:53 AM,70.0,66.0,87,29.98,10.0,Calm,Calm,-,N/A,,Clear,0,2013-10-12 09:53:00
6:53 AM,69.1,66.9,93,30.00,10.0,Calm,Calm,-,N/A,,Clear,0,2013-10-12 10:53:00
7:53 AM,69.1,64.9,87,30.01,10.0,Calm,Calm,-,N/A,,Scattered Clouds,0,2013-10-12 11:53:00
8:53 AM,78.1,66.9,68,30.02,10.0,Calm,Calm,-,N/A,,Scattered Clouds,0,2013-10-12 12:53:00
9:53 AM,82.9,64.9,54,30.04,10.0,NW,3.5,-,N/A,,Scattered Clouds,320,2013-10-12 13:53:00
10:53 AM,82.9,64.0,53,30.04,10.0,NE,8.1,-,N/A,,Scattered Clouds,50,2013-10-12 14:53:00
11:53 AM,82.9,63.0,51,30.03,10.0,North,3.5,-,N/A,,Scattered Clouds,350,2013-10-12 15:53:00
12:53 PM,87.1,64.0,46,30.01,10.0,ENE,8.1,-,N/A,,Scattered Clouds,70,2013-10-12 16:53:00
1:53 PM,86.0,64.9,49,30.00,10.0,East,9.2,-,N/A,,Scattered Clouds,80,2013-10-12 17:53:00
2:53 PM,82.9,64.9,54,29.99,10.0,ENE,9.2,-,N/A,,Scattered Clouds,70,2013-10-12 18:53:00
3:53 PM,84.9,64.9,51,29.98,10.0,East,10.4,-,N/A,,Scattered Clouds,80,2013-10-12 19:53:00
4:53 PM,84.0,66.9,56,29.98,10.0,ENE,11.5,-,N/A,,Partly Cloudy,70,2013-10-12 20:53:00
5:53 PM,81.0,66.0,60,29.99,10.0,ENE,10.4,-,N/A,,Scattered Clouds,70,2013-10-12 21:53:00
6:53 PM,81.0,68.0,65,30.00,10.0,ENE,8.1,-,N/A,,Scattered Clouds,60,2013-10-12 22:53:00
7:53 PM,80.1,66.0,62,30.01,10.0,East,8.1,-,N/A,,Partly Cloudy,80,2013-10-12 23:53:00
8:53 PM,78.1,66.0,66,30.02,10.0,East,5.8,-,N/A,,Clear,90,2013-10-13 00:53:00
9:53 PM,77.0,66.0,69,30.04,10.0,East,4.6,-,N/A,,Clear,90,2013-10-13 01:53:00
10:53 PM,79.0,66.9,66,30.04,10.0,Calm,Calm,-,N/A,,Clear,0,2013-10-13 02:53:00
11:53 PM,-9999,-9999,N/A,30.04,10.0,East,4.6,-,N/A,,Clear,100,2013-10-13 03:53:00